Regional Weather Roundup
Issued by NWS

Home | Current Version | Previous Version | Graphics & Text | Print | Product List | Glossary On
Versions: 1 2 3 4 5 6 7 8 9 10 11 12 13 14 15 16 17 18 19 20 21 22 23 24 25 26 27 28 29 30 31 32 33 34 35 36 37 38 39 40 41 42 43 44 45 46 47 48 49 50
000
ASUS43 KBIS 240710
RWRND

NORTH DAKOTA REGIONAL WEATHER ROUNDUP
NATIONAL WEATHER SERVICE BISMARCK ND
200 AM CDT THU APR 24 2014

NOTE: "FAIR" INDICATES FEW OR NO CLOUDS BELOW 12,000 FEET WITH NO
SIGNIFICANT WEATHER AND/OR OBSTRUCTIONS TO VISIBILITY.


NDZ001>003-009>011-017-240800-
NORTHWEST NORTH DAKOTA

CITY           SKY/WX    TMP DP  RH WIND       PRES   REMARKS
WILLISTON      CLEAR     44  25  47 W16       29.65R
MINOT          MOCLDY    41  38  89 S5        29.67R
MINOT AFB      PTCLDY    40  40  99 SW8       29.66R
$$

NDZ018>021-031>035-040>046-240800-
SOUTHWEST NORTH DAKOTA

CITY           SKY/WX    TMP DP  RH WIND       PRES   REMARKS
BISMARCK       CLOUDY    38  32  79 CALM      29.73F
DICKINSON      CLEAR     39  24  55 W13       29.70S
GARRISON         N/A     37  36  96 S5        29.70R
HETTINGER ARPT PTCLDY    33  25  72 NW5       29.77R
$$

NDZ004>008-012>016-024-026-027-054-240800-
NORTHEAST NORTH DAKOTA

CITY           SKY/WX    TMP DP  RH WIND       PRES   REMARKS
GRAND FORKS    LGT RAIN  38  37  97 SE15      29.82F FOG
GRND FRKS AFB  CLOUDY    38  38  99 SE10      29.81F FOG
DEVILS LAKE    CLOUDY    39  34  81 S17G23    29.75R
$$

NDZ022-023-025-028>030-036>039-047>053-240800-
SOUTHEAST NORTH DAKOTA

CITY           SKY/WX    TMP DP  RH WIND       PRES   REMARKS
FARGO          CLOUDY    42  38  85 SE10G21   29.80S
JAMESTOWN      CLOUDY    39  38  96 S7        29.73F
$$




USA.gov is the U.S. government's official web portal to all federal, state and local government web resources and services.